Flag for U.S.A. Weather past 2 weeks in Bloomington, Illinois, U.S.A.

Now
67 °F

Sunny.


Feels Like: 67 °F
Forecast: 51 / 66 °F
Wind: 21 mph from West

Location: Bloomington / Normal

Current Time: Sep 21, 2014 at 11:26:02 AM

Latest Report: Sep 21, 2014 at 10:56 AM


Visibility: 10 mi

Pressure: 29.93 "Hg

Humidity: 59%

Dew point: 52 °F

Location of BloomingtonLocation

Historic Weather in Bloomington — Graph

°F

Bloomington temperature yesterday

Maximum temperature yesterday: 91 °F (at 3:56 PM)
Minimum temperature yesterday: 32 °F (at 5:56 PM)
Average temperature yesterday: 59 °F

Past Weeks' High & Low Weather Summary

 TemperatureHumidityPressure
High91 °F (Sep 20, 3:56 PM)100% (Sep 13, 3:04 AM)30.42 "Hg (Sep 13, 3:04 AM)
Low32 °F (Sep 19, 11:56 AM)39% (Sep 7, 3:56 PM)29.62 "Hg (Sep 10, 1:56 PM)
Average58 °F76%30.10 "Hg
* Reported Sep 6 9:56 AM — Sep 21 9:56 AM, Bloomington, Weather by CustomWeather, © 2014

Note: Actual official high and low records may vary slightly from our data, if they occured in-between our weather recording intervals... More about our weather records

Advertising

Bloomington weather history for previous 24 hours

 ConditionsComfort  
Time TempWeatherWind HumidityBarometerVisibility
9:56 AM
Sep 21
64 °FSunny.14 mph70%29.93 "Hg10 mi
8:56 AM61 °FSunny.13 mph78%29.92 "Hg10 mi
7:56 AM58 °FSunny.9 mph84%29.91 "Hg10 mi
6:56 AM56 °FClear.7 mph87%29.91 "Hg10 mi
5:56 AM57 °FClear.8 mph87%29.90 "Hg10 mi
4:56 AM60 °FClear.14 mph81%29.87 "Hg10 mi
3:56 AM64 °FClear.18 mph84%29.83 "Hg10 mi
2:56 AM68 °FClear.15 mph96%29.81 "Hg7 mi
1:56 AM69 °FClear.10 mph97%29.80 "Hg7 mi
12:56 AM69 °FFog.8 mph97%29.80 "Hg6 mi
11:56 PM
Sep 20
71 °FClear.9 mph93%29.79 "Hg9 mi
10:56 PM71 °FClear.10 mph97%29.83 "Hg10 mi
9:56 PM32 °FThundershowers. Partly cloudy.8 mph100%29.83 "Hg10 mi
8:56 PM32 °FThundershowers. Partly cloudy.14 mph100%29.83 "Hg5 mi
7:56 PM32 °FPassing clouds.13 mph100%29.84 "Hg10 mi
6:56 PM32 °FSunny.10 mph100%29.84 "Hg10 mi
5:56 PM32 °FPassing clouds.7 mph100%29.85 "Hg9 mi
4:56 PM78 °FSunny.9 mph85%29.85 "Hg9 mi
3:56 PM91 °FLight rain. Broken clouds.10 mph50%29.85 "Hg10 mi
2:56 PM80 °FThundershowers. Partly sunny.12 mph69%29.86 "Hg10 mi
1:56 PM82 °FSunny.21 mph65%29.87 "Hg10 mi
12:56 PM80 °FSunny.14 mph69%29.87 "Hg10 mi
Weather by CustomWeather, © 2014

See weather overviewHow to use our weather pages